Change the Weather History Date:

Monday, April 1, 2013

  Actual Average Record
Temperature  
Mean Temperature 53 °F 51 °F  
Max Temperature 64 °F 64 °F 83 °F (1974)
Min Temperature 41 °F 39 °F 20 °F (1923)
Degree Days  
Heating Degree Days 12 14  
Month to date heating degree days 12 14  
Since 1 July heating degree days 3663 3786  
Cooling Degree Days 0 0  
Month to date cooling degree days 0 0  
Year to date cooling degree days 0 1  
Growing Degree Days 2 (Base 50)    
Moisture  
Dew Point 40 °F    
Average Humidity 67    
Maximum Humidity 100    
Minimum Humidity 34    
Precipitation  
Precipitation T in 0.12 in 1.20 in (1970)
Month to date precipitation T 0.12  
Year to date precipitation 15.46 11.38  
Snow  
Snow 0.00 in 0.10 in 3.60 in (1931)
Month to date snowfall 0.0 0.1  
Since 1 July snowfall 0.5 9.3  
Snow Depth 0.00 in    
Sea Level Pressure  
Sea Level Pressure 29.93 in    
Wind  
Wind Speed 8 mph (NNW)    
Max Wind Speed 21 mph    
Max Gust Speed 28 mph    
Visibility 8 miles    
Events Fog , Rain    
T = Trace of Precipitation, MM = Missing Value Source: NWS Daily Summary

Daily Weather History Graph

Daily Weather History Graph

Search for Another Location

Airport or City:

Trip Planner

Search our weather history database for the weather conditions in past years. The results will help you decide how hot, cold, wet, or windy it might be!

Date:

Astronomy

Apr. 01, 2013 Rise Set
Actual Time 7:16 AM EDT 7:51 PM EDT
Civil Twilight 6:50 AM EDT 8:17 PM EDT
Nautical Twilight 6:20 AM EDT 8:47 PM EDT
Astronomical Twilight 5:49 AM EDT 9:18 PM EDT
Moon 12:49 AM EDT (4/1) 11:11 AM EDT (4/1)
Length of Visible Light 13h 26m
Length of Day
12h 35m
Waning Gibbous, 67% of the Moon is Illuminated
Apr 1
Waning Gibbous
Apr 3
Last Quarter
Apr 10
New
Apr 18
First Quarter
Apr 25
Full

Hourly Weather History & Observations

Time (EDT) Temp. Windchill Dew Point Humidity Pressure Visibility Wind Dir Wind Speed Gust Speed Precip Events Conditions
12:54 AM 50.0 °F - 48.2 °F 94% 29.90 in 7.0 mi NNW 10.4 mph - N/A Rain Light Rain
1:54 AM 50.0 °F - 46.9 °F 89% 29.86 in 10.0 mi NNW 6.9 mph - 0.00 in   Overcast
2:54 AM 48.9 °F - 46.0 °F 90% 29.85 in 10.0 mi NNW 5.8 mph - N/A   Scattered Clouds
3:54 AM 48.9 °F - 46.0 °F 90% 29.85 in 10.0 mi NNW 10.4 mph - N/A   Mostly Cloudy
4:54 AM 44.6 °F 43.1 °F 42.8 °F 93% 29.89 in 10.0 mi North 3.5 mph - N/A   Clear
5:54 AM 44.6 °F 43.1 °F 42.8 °F 93% 29.91 in 10.0 mi North 3.5 mph - N/A   Clear
6:54 AM 42.1 °F 40.2 °F 41.0 °F 96% 29.91 in 10.0 mi NNW 3.5 mph - N/A   Clear
7:54 AM 41.0 °F 37.1 °F 39.9 °F 96% 29.93 in 10.0 mi NNW 5.8 mph - N/A   Clear
8:12 AM 42.8 °F 39.3 °F 41.0 °F 93% 29.95 in 2.0 mi NNW 5.8 mph - N/A   Partly Cloudy
8:15 AM 41.0 °F 37.1 °F 41.0 °F 100% 29.96 in 1.2 mi NNW 5.8 mph - N/A   Scattered Clouds
8:17 AM 41.0 °F 37.1 °F 41.0 °F 100% 29.96 in 0.8 mi NNW 5.8 mph - N/A   Mist
8:29 AM 42.8 °F 38.6 °F 42.8 °F 100% 29.96 in 0.2 mi NNW 6.9 mph - N/A Fog Fog
8:54 AM 44.6 °F 43.1 °F 44.6 °F 100% 29.96 in 0.2 mi NW 3.5 mph - N/A Fog Fog
9:19 AM 44.6 °F 41.4 °F 44.6 °F 100% 29.97 in 1.0 mi NNW 5.8 mph - N/A   Mist
9:21 AM 44.6 °F 41.4 °F 44.6 °F 100% 29.97 in 2.0 mi North 5.8 mph - N/A   Mostly Cloudy
9:33 AM 46.4 °F 45.2 °F 44.6 °F 93% 29.96 in 4.0 mi NW 3.5 mph - N/A   Scattered Clouds
9:54 AM 48.0 °F - 46.0 °F 93% 29.94 in 10.0 mi Calm Calm - N/A   Partly Cloudy
10:54 AM 55.4 °F - 42.8 °F 63% 29.97 in 10.0 mi NNW 9.2 mph - N/A   Clear
11:54 AM 59.0 °F - 37.4 °F 45% 29.97 in 10.0 mi North 8.1 mph - N/A   Clear
12:54 PM 61.0 °F - 37.9 °F 42% 29.92 in 10.0 mi NNW 10.4 mph - N/A   Clear
1:54 PM 63.0 °F - 37.0 °F 38% 29.91 in 10.0 mi NNE 11.5 mph 21.9 mph N/A   Scattered Clouds
2:54 PM 61.0 °F - 34.0 °F 36% 29.91 in 10.0 mi North 11.5 mph 21.9 mph N/A   Overcast
3:15 PM 62.6 °F - 33.8 °F 34% 29.94 in 10.0 mi NW 13.8 mph 25.3 mph N/A   Mostly Cloudy
3:54 PM 62.1 °F - 34.0 °F 35% 29.90 in 10.0 mi NW 15.0 mph 21.9 mph N/A   Mostly Cloudy
4:54 PM 61.0 °F - 35.1 °F 38% 29.91 in 10.0 mi NW 13.8 mph - N/A   Mostly Cloudy
5:54 PM 57.0 °F - 39.0 °F 51% 29.92 in 10.0 mi North 9.2 mph - 0.00 in Rain Light Rain
6:54 PM 55.9 °F - 39.9 °F 55% 29.94 in 10.0 mi North 10.4 mph - N/A   Scattered Clouds
7:54 PM 55.0 °F - 34.0 °F 45% 29.94 in 10.0 mi NW 9.2 mph 18.4 mph N/A   Partly Cloudy
8:54 PM 54.0 °F - 37.9 °F 55% 29.95 in 10.0 mi North 6.9 mph - N/A   Scattered Clouds
9:54 PM 53.1 °F - 35.1 °F 50% 29.96 in 10.0 mi NNW 8.1 mph - N/A   Mostly Cloudy
10:54 PM 50.0 °F - 33.1 °F 52% 29.97 in 10.0 mi NNW 6.9 mph - N/A   Scattered Clouds
11:54 PM 50.0 °F - 30.0 °F 46% 29.97 in 10.0 mi NW 12.7 mph - N/A   Clear